星链-30259 (STARLINK-30259 )

导读

STARLINK-30259是美国太空探索技术公司(SpaceX)星链(Starlink)星座的卫星,于2023年8月8日在美国发射。它属于星链互联网星座组网卫星,旨在为全球提供低延迟、高速率的卫星互联网服务,补充地面网络覆盖盲区,推进全球互联网络覆盖布局。

Basic Information
目录编号:
57521
目录名称:
STARLINK-30259
国际标识:
2023-115A
轨道中心:
EARTH
卫星名称:
星链-30259
卫星全名:
星链-30259 (STARLINK-30259 )
卫星状态:
在轨 (已飞行1123 天)
发射日期:
2023-08-08 UTC
国别 :
美国 (US)
星等 :
--
Orbit Information
数据来源 国际轨道数据 AOE轨道数据
星历时间 2026-09-04T05:16:05+0800
14小时前
查看轨道信息
2026-08-31T12:00:00+0800
4天前
查看轨道信息
半长轴 6861.196km 6861.162km
偏心率 0.0001356 0.0001451
轨道倾角 43.002° 43.001°
近地点辐角 275.579° 264.433°
升交点赤经 75.282° 96.290°
平近点角 84.491° 137.087°
近地点 482.128km 482.029km
远地点 483.99km 484.021km
周期 94.267分钟 94.266分钟
每日圈数 15.275767 15.275882
Detailed Information
固有亮度:
5
最大亮度:
0.3
卫星平台:
Starlink v2.0 mini
覆盖范围:
全球
运营商:
太空探索技术公司
运营商所在国:
美国
制造商(研发单位):
太空探索技术公司
制造商所在国:
美国
使用方式:
暂无
Satellite Introduction
星链(Starlink)计划是由太空探索技术公司(SpaceX)提出的一个巨型低轨卫星互联网星座项目,计划在2019年至2024年间在太空搭建由约1.2万颗卫星组成的“星链”网络,其中1584颗将部署在地球上空550千米处的近地轨道,并从2020年开始工作。该卫星仍在工作。
2D Orbit Map
3D Orbit Map
Orbit Altitude Analysis Chart
Orbit Inclination Analysis Chart
Orbit Comprehensive Analysis Chart
View Comprehensive Chart